Weather History for KYIP - October, 2011

Change the Weather History Date:

Tuesday, October 4, 2011

  Actual Average Record
Temperature  
Mean Temperature 60 °F -  
Max Temperature 75 °F 67 °F 84 °F (2005)
Min Temperature 48 °F 47 °F 30 °F (1996)
Degree Days  
Heating Degree Days 4    
Growing Degree Days 10 (Base 50)    
Moisture  
Dew Point 45 °F    
Average Humidity 65    
Maximum Humidity 83    
Minimum Humidity 33    
Precipitation  
Precipitation 0.00 in - - ()
Sea Level Pressure  
Sea Level Pressure 30.24 in    
Wind  
Wind Speed 3 mph (NW)    
Max Wind Speed 7 mph    
Max Gust Speed -    
Visibility 10 miles    
Events      
Averages and records for this station are not official NWS values.
T = Trace of Precipitation, MM = Missing Value Source: NWS Daily Summary

Daily Weather History Graph

Daily Weather History Graph

Search for Another Location

Airport or City:

Trip Planner

Search our weather history database for the weather conditions in past years. The results will help you decide how hot, cold, wet, or windy it might be!

Date:

Astronomy

Oct. 04, 2011 Rise Set
Actual Time 7:34 AM EDT 7:10 PM EDT
Civil Twilight 7:06 AM EDT 7:38 PM EDT
Nautical Twilight 6:33 AM EDT 8:11 PM EDT
Astronomical Twilight 6:00 AM EDT 8:43 PM EDT
Moon 3:19 PM EDT (10/4) 12:08 AM EDT (10/4)
Length of Visible Light 12h 32m
Length of Day
11h 36m
First Quarter, 56% of the Moon is Illuminated
Oct 4
First Quarter
Oct 11
Full
Oct 19
Last Quarter
Oct 26
New
Nov 2
First Quarter

Hourly Weather History & Observations

Time (EDT) Temp. Dew Point Humidity Pressure Visibility Wind Dir Wind Speed Gust Speed Precip Events Conditions
12:29 AM 57.2 °F 51.8 °F 82% 30.22 in 10.0 mi NNW 4.6 mph - N/A   Overcast
12:53 AM 57.0 °F 48.9 °F 74% 30.20 in 10.0 mi NNW 4.6 mph - N/A   Mostly Cloudy
1:01 AM 55.4 °F 48.2 °F 77% 30.21 in 10.0 mi NNW 3.5 mph - N/A   Mostly Cloudy
1:08 AM 55.4 °F 48.2 °F 77% 30.21 in 10.0 mi Calm Calm - N/A   Mostly Cloudy
1:37 AM 53.6 °F 48.2 °F 82% 30.21 in 10.0 mi NNW 4.6 mph - N/A   Scattered Clouds
1:53 AM 52.0 °F 46.9 °F 83% 30.21 in 10.0 mi NW 4.6 mph - N/A   Clear
2:53 AM 50.0 °F 45.0 °F 83% 30.21 in 10.0 mi NW 5.8 mph - N/A   Clear
3:53 AM 50.0 °F 45.0 °F 83% 30.22 in 10.0 mi NW 3.5 mph - N/A   Clear
4:53 AM 50.0 °F 44.1 °F 80% 30.22 in 10.0 mi Calm Calm - N/A   Clear
5:53 AM 48.9 °F 43.0 °F 80% 30.23 in 10.0 mi Calm Calm - N/A   Clear
6:53 AM 48.2 °F 42.8 °F 82% 30.25 in 10.0 mi Calm Calm - N/A   Clear
7:53 AM 48.0 °F 41.0 °F 77% 30.26 in 10.0 mi WNW 3.5 mph - N/A   Clear
8:53 AM 53.1 °F 43.0 °F 69% 30.27 in 10.0 mi Calm Calm - N/A   Clear
9:53 AM 59.0 °F 44.1 °F 58% 30.29 in 10.0 mi NW 5.8 mph - N/A   Clear
10:53 AM 64.4 °F 46.4 °F 52% 30.30 in 10.0 mi WNW 5.8 mph - N/A   Clear
11:53 AM 69.1 °F 43.0 °F 39% 30.29 in 10.0 mi NNW 6.9 mph - N/A   Clear
12:53 PM 71.1 °F 42.1 °F 35% 30.28 in 10.0 mi NW 6.9 mph - N/A   Clear
1:53 PM 72.0 °F 43.0 °F 35% 30.27 in 10.0 mi NNW 5.8 mph - N/A   Clear
2:53 PM 73.4 °F 44.6 °F 36% 30.26 in 10.0 mi NNW 4.6 mph - N/A   Clear
3:53 PM 73.9 °F 43.0 °F 33% 30.24 in 10.0 mi North 4.6 mph - N/A   Clear
4:53 PM 73.9 °F 46.0 °F 37% 30.23 in 10.0 mi NW 5.8 mph - N/A   Clear
5:53 PM 71.6 °F 44.6 °F 38% 30.23 in 10.0 mi Calm Calm - N/A   Clear
6:53 PM 70.0 °F 43.0 °F 38% 30.23 in 10.0 mi Calm Calm - N/A   Clear
7:53 PM 60.1 °F 48.9 °F 67% 30.25 in 10.0 mi Calm Calm - N/A   Clear
8:53 PM 57.9 °F 48.0 °F 70% 30.24 in 10.0 mi Calm Calm - N/A   Clear
9:53 PM 54.0 °F 46.9 °F 77% 30.24 in 10.0 mi Calm Calm - N/A   Clear
10:53 PM 52.0 °F 46.9 °F 83% 30.25 in 10.0 mi Calm Calm - N/A   Clear
11:53 PM 52.0 °F 46.9 °F 83% 30.24 in 10.0 mi Calm Calm - N/A   Clear